Hourly Data Report for October 31, 2017

All times are specified in Local Standard Time (LST). Add 1 hour to adjust for Daylight Saving Time where and when it is observed.

POWELL RIVER
BRITISH COLUMBIA

49°50'04.400" N
124°29'48.500" W
125.00 m
1046392
71720
VOP

Download Data

Hourly Data (October 2017)
Hourly Data Report for October 31, 2017
Temp Definition
°C
Dew Point Temp Definition
°C
Rel Hum Definition
%
Wind Dir Definition
10's deg

Wind Spd Definition
km/h
Visibility Definition
km
Stn Press Definition
kPa
Hmdx Definition


Wind Chill Definition


Weather Definition


TIME
00:00 2.2 1.8 98 LegendMM LegendMM   100.59     LegendNANA
01:00 3.0 2.7 98 LegendMM LegendMM   100.58     LegendNANA
02:00 2.4 2.2 99 LegendMM LegendMM   100.56     LegendNANA
03:00 2.3 2.1 98 LegendMM LegendMM   100.50     LegendNANA
04:00 2.5 2.3 99 LegendMM LegendMM   100.41     LegendNANA
05:00 2.8 2.6 99 LegendMM LegendMM   100.42     LegendNANA
06:00 2.7 2.5 99 LegendMM LegendMM   100.37     LegendNANA
07:00 2.7 2.5 99 LegendMM LegendMM   100.34     LegendNANA
08:00 2.5 2.3 98 LegendMM LegendMM   100.29     LegendNANA
09:00 4.8 4.5 98 LegendMM LegendMM   100.29     LegendNANA
10:00 8.9 7.2 90 LegendMM LegendMM   100.21     LegendNANA
11:00 8.9 5.2 77 LegendMM LegendMM   100.18     LegendNANA
12:00 9.4 5.3 76 LegendMM LegendMM   100.08     LegendNANA
13:00 9.6 4.7 71 LegendMM LegendMM   99.95     LegendNANA
14:00 11.0 4.7 65 LegendMM LegendMM   99.83     LegendNANA
15:00 9.1 5.5 78 LegendMM LegendMM   99.76     LegendNANA
16:00 9.5 5.7 78 LegendMM LegendMM   99.72     LegendNANA
17:00 9.2 6.0 80 LegendMM LegendMM   99.61     LegendNANA
18:00 8.5 5.8 83 LegendMM LegendMM   99.53     LegendNANA
19:00 6.7 4.7 87 LegendMM LegendMM   99.47     LegendNANA
20:00 7.0 5.0 87 LegendMM LegendMM   99.41     LegendNANA
21:00 10.3 7.0 80 LegendMM LegendMM   99.34     LegendNANA
22:00 9.7 6.4 80 LegendMM LegendMM   99.30     LegendNANA
23:00 9.3 5.6 78 LegendMM LegendMM   99.28     LegendNANA

Notes on Data Quality.

Legend

  • E = Estimated
  • M = Missing
  • NA = Not Available
  • ‡ = Partner data that is not subject to review by the National Climate Archives
Date modified: